Torna al catalogo

STARLINK-31872

AttivoComunicazioniVLEO
NORAD 59922·PAYLOAD·🇺🇸 United States

Lanciato Jun 1, 2024 da Cape Canaveral Space Force Station

Loading…

Prossimi Passaggi (prossime 24 ore)

TLE

AggiornatoSource: CelesTrak SupGP

Epoca: Sep 14, 2026, 22:42 UTC

1 59922C 24106A   26257.94631944 -.00020222  00000+0 -73205-3 0  2578
2 59922  43.0030 344.0419 0001474 263.4704  81.1557 15.27606077    15

Traccia STARLINK-31872 in tempo reale con AllMySat

Download on the App Store